| time (UTC) | temp C | wind direction | speed KPH | gust KPH | rain 1hr cm | rain 24hr cm | rain mn cm | humidity % | barometer mb |
| 20260506114504 | 13 | 302 | 1.6 | 14.5 | 0.00 | 0.00 | 0.00 | 87 | 1023.5 |
| 20260506113004 | 13 | 242 | 1.6 | 9.7 | 0.00 | 0.00 | 0.00 | 86 | 1023.3 |
| 20260506111505 | 14 | 274 | 4.8 | 12.9 | 0.00 | 0.00 | 0.00 | 86 | 1023.2 |
| 20260506110005 | 14 | 267 | 4.8 | 14.5 | 0.00 | 0.00 | 0.00 | 86 | 1023.0 |
| 20260506104506 | 14 | 255 | 1.6 | 12.9 | 0.00 | 0.00 | 0.00 | 87 | 1022.8 |
| 20260506100004 | 14 | 252 | 0.0 | 4.8 | 0.00 | 0.00 | 0.00 | 87 | 1022.4 |
| 20260506094504 | 15 | 252 | 0.0 | 0.0 | 0.00 | 0.00 | 0.00 | 87 | 1022.2 |
| 20260506093004 | 15 | 252 | 0.0 | 4.8 | 0.00 | 0.00 | 0.00 | 86 | 1022.2 |
| 20260506091504 | 15 | 250 | 3.2 | 11.3 | 0.00 | 0.00 | 0.00 | 86 | 1022.1 |
| 20260506090004 | 15 | 262 | 1.6 | 11.3 | 0.00 | 0.00 | 0.00 | 86 | 1022.2 |
| 20260506084504 | 15 | 270 | 3.2 | 11.3 | 0.00 | 0.00 | 0.00 | 86 | 1022.1 |
| 20260506083004 | 15 | 271 | 1.6 | 4.8 | 0.00 | 0.00 | 0.00 | 85 | 1022.0 |
| 20260506081504 | 15 | 274 | 0.0 | 3.2 | 0.00 | 0.00 | 0.00 | 85 | 1021.8 |
| 20260506073004 | 15 | 274 | 0.0 | 0.0 | 0.00 | 0.00 | 0.00 | 85 | 1021.6 |
| 20260506071504 | 15 | 274 | 0.0 | 0.0 | 0.00 | 0.00 | 0.00 | 85 | 1021.5 |
| 20260506061505 | 15 | 274 | 0.0 | 0.0 | 0.00 | 0.00 | 0.00 | 83 | 1021.3 |
| 20260506044504 | 15 | 272 | 0.0 | 0.0 | 0.00 | 0.00 | 0.00 | 82 | 1021.1 |
| 20260506041504 | 15 | 272 | 0.0 | 0.0 | 0.00 | 0.00 | 0.00 | 82 | 1020.8 |
| 20260506040005 | 15 | 272 | 0.0 | 0.0 | 0.00 | 0.00 | 0.00 | 82 | 1020.7 |
| 20260506034504 | 16 | 272 | 0.0 | 0.0 | 0.00 | 0.00 | 0.00 | 81 | 1020.4 |
| 20260506033005 | 16 | 272 | 0.0 | 0.0 | 0.00 | 0.00 | 0.00 | 81 | 1020.2 |
| 20260506031504 | 16 | 272 | 0.0 | 0.0 | 0.00 | 0.00 | 0.00 | 80 | 1020.3 |
| 20260506030004 | 16 | 272 | 0.0 | 0.0 | 0.00 | 0.00 | 0.00 | 79 | 1020.1 |
| 20260506023004 | 16 | 271 | 0.0 | 4.8 | 0.00 | 0.00 | 0.00 | 77 | 1019.9 |
| 20260506021504 | 16 | 235 | 1.6 | 3.2 | 0.00 | 0.00 | 0.00 | 75 | 1019.8 |
| 20260506020004 | 17 | 234 | 0.0 | 3.2 | 0.00 | 0.00 | 0.00 | 75 | 1020.0 |
| 20260506014504 | 17 | 234 | 0.0 | 4.8 | 0.00 | 0.00 | 0.00 | 75 | 1019.8 |
| 20260506013004 | 17 | 244 | 1.6 | 4.8 | 0.00 | 0.00 | 0.00 | 73 | 1019.8 |
| 20260506011505 | 17 | 245 | 1.6 | 4.8 | 0.00 | 0.00 | 0.00 | 76 | 1019.7 |
| 20260506010004 | 17 | 244 | 0.0 | 4.8 | 0.00 | 0.00 | 0.00 | 75 | 1019.7 |
| 20260506004505 | 17 | 270 | 1.6 | 4.8 | 0.00 | 0.00 | 0.00 | 74 | 1019.8 |
| 20260506001504 | 17 | 233 | 0.0 | 4.8 | 0.00 | 0.00 | 0.00 | 74 | 1019.9 |
| 20260506000004 | 17 | 252 | 1.6 | 8.0 | 0.00 | 0.00 | 0.00 | 73 | 1020.0 |
| 20260505234505 | 17 | 197 | 0.0 | 11.3 | 0.00 | 0.00 | 0.00 | 71 | 1020.1 |
| 20260505231504 | 17 | 241 | 1.6 | 12.9 | 0.00 | 0.00 | 0.00 | 72 | 1020.1 |
| 20260505230004 | 17 | 244 | 1.6 | 9.7 | 0.00 | 0.00 | 0.00 | 72 | 1020.1 |
| 20260505224504 | 17 | 264 | 0.0 | 3.2 | 0.00 | 0.00 | 0.00 | 76 | 1020.3 |
| 20260505223004 | 17 | 215 | 4.8 | 11.3 | 0.00 | 0.00 | 0.00 | 72 | 1020.3 |
| 20260505221504 | 17 | 200 | 1.6 | 8.0 | 0.00 | 0.00 | 0.00 | 73 | 1020.3 |
| 20260505220005 | 17 | 222 | 4.8 | 11.3 | 0.00 | 0.00 | 0.00 | 71 | 1020.5 |
| 20260505214504 | 16 | 252 | 1.6 | 11.3 | 0.00 | 0.00 | 0.00 | 74 | 1020.6 |
| 20260505213004 | 16 | 253 | 3.2 | 14.5 | 0.00 | 0.00 | 0.00 | 73 | 1020.6 |
| 20260505211504 | 16 | 258 | 3.2 | 16.1 | 0.00 | 0.00 | 0.00 | 75 | 1020.7 |
| 20260505210005 | 16 | 249 | 4.8 | 14.5 | 0.00 | 0.00 | 0.00 | 73 | 1020.9 |
| 20260505204504 | 16 | 230 | 4.8 | 14.5 | 0.00 | 0.00 | 0.00 | 73 | 1021.0 |
| 20260505203005 | 16 | 254 | 4.8 | 11.3 | 0.00 | 0.00 | 0.00 | 74 | 1021.0 |
| 20260505201504 | 17 | 257 | 3.2 | 9.7 | 0.00 | 0.00 | 0.00 | 71 | 1021.0 |
| 20260505200005 | 17 | 256 | 0.0 | 12.9 | 0.00 | 0.00 | 0.00 | 71 | 1021.0 |
| 20260505193004 | 16 | 276 | 0.0 | 4.8 | 0.00 | 0.00 | 0.00 | 76 | 1021.2 |
| 20260505191504 | 15 | 237 | 0.0 | 4.8 | 0.00 | 0.00 | 0.00 | 76 | 1021.3 |
| 20260505184504 | 15 | 254 | 0.0 | 4.8 | 0.00 | 0.00 | 0.00 | 77 | 1021.3 |
| 20260505183004 | 15 | 217 | 0.0 | 3.2 | 0.00 | 0.00 | 0.00 | 78 | 1021.3 |
| 20260505181504 | 15 | 229 | 0.0 | 9.7 | 0.00 | 0.00 | 0.00 | 80 | 1021.2 |
| 20260505180004 | 15 | 295 | 0.0 | 1.6 | 0.00 | 0.00 | 0.00 | 80 | 1021.3 |
| 20260505174504 | 14 | 290 | 0.0 | 3.2 | 0.00 | 0.00 | 0.00 | 81 | 1021.2 |
| 20260505173004 | 14 | 292 | 0.0 | 4.8 | 0.00 | 0.00 | 0.00 | 82 | 1021.1 |
| 20260505171504 | 13 | 266 | 3.2 | 4.8 | 0.00 | 0.00 | 0.00 | 81 | 1021.1 |
| 20260505170004 | 13 | 238 | 1.6 | 4.8 | 0.00 | 0.00 | 0.00 | 82 | 1021.1 |
| 20260505164504 | 13 | 257 | 1.6 | 8.0 | 0.00 | 0.00 | 0.00 | 83 | 1021.0 |
| 20260505163004 | 13 | 229 | 3.2 | 4.8 | 0.00 | 0.00 | 0.00 | 83 | 1020.9 |
| 20260505161504 | 13 | 252 | 3.2 | 4.8 | 0.00 | 0.00 | 0.00 | 84 | 1020.9 |
| 20260505153004 | 13 | 271 | 4.8 | 8.0 | 0.00 | 0.00 | 0.00 | 84 | 1020.9 |
| 20260505124504 | 13 | 226 | 3.2 | 12.9 | 0.00 | 0.00 | 0.00 | 83 | 1019.7 |
| 20260505123005 | 13 | 252 | 1.6 | 4.8 | 0.00 | 0.00 | 0.00 | 82 | 1019.6 |
| 20260505121504 | 13 | 246 | 1.6 | 4.8 | 0.00 | 0.00 | 0.00 | 82 | 1019.6 |
| 20260505120005 | 13 | 246 | 0.0 | 11.3 | 0.00 | 0.00 | 0.00 | 82 | 1019.6 |